Venice, FL

9:20 PM EDT on April 23, 2018 (GMT -0400)
Venice Municipal

Weather History for KVNC - November, 2013

Change the Weather History Date:

Saturday, November 30, 2013

  Actual Average Record
Temperature  
Mean Temperature 65 °F -  
Max Temperature 75 °F 76 °F 84 °F (1972)
Min Temperature 55 °F 56 °F 32 °F (1959)
Growing Degree Days 15 (Base 50)    
Moisture  
Dew Point 59 °F    
Average Humidity 84    
Maximum Humidity 100    
Minimum Humidity 65    
Precipitation  
Precipitation 0.00 in - - ()
Sea Level Pressure  
Sea Level Pressure 30.23 in    
Wind  
Wind Speed 12 mph (NE)    
Max Wind Speed 17 mph    
Max Gust Speed 24 mph    
Visibility 9 miles    
Events Fog , Rain    
Averages and records for this station are not official NWS values.
T = Trace of Precipitation, MM = Missing Value Source: NWS Daily Summary

Daily Weather History Graph

Daily Weather History Graph

Search for Another Location

Airport or City:

Astronomy

Nov. 30, 2013 Rise Set
Actual Time 7:01 AM EST 5:35 PM EST
Civil Twilight 6:36 AM EST 6:00 PM EST
Nautical Twilight 6:07 AM EST 6:29 PM EST
Astronomical Twilight 5:39 AM EST 6:57 PM EST
Moon 4:22 AM EST (11/30) 3:49 PM EST (11/30)
Length of Visible Light 11h 24m
Length of Day
10h 34m
Waning Crescent, 7% of the Moon is Illuminated
Nov 30
Waning Crescent
Dec 2
New
Dec 9
First Quarter
Dec 17
Full
Dec 25
Last Quarter

Hourly Weather History & Observations

Time (EST) Temp. Dew Point Humidity Pressure Visibility Wind Dir Wind Speed Gust Speed Precip Events Conditions
12:15 AM 57.2 °F 51.8 °F 82% 30.30 in 10.0 mi NE 12.7 mph - N/A   Clear
12:35 AM 57.2 °F 50.0 °F 77% 30.30 in 10.0 mi NE 12.7 mph - N/A   Clear
12:55 AM 55.4 °F 50.0 °F 82% 30.30 in 10.0 mi NE 11.5 mph 17.3 mph N/A   Clear
1:15 AM 55.4 °F 50.0 °F 82% 30.29 in 10.0 mi NNE 12.7 mph 16.1 mph N/A   Clear
1:35 AM 55.4 °F 50.0 °F 82% 30.29 in 10.0 mi NE 12.7 mph 19.6 mph N/A   Clear
1:55 AM 55.4 °F 50.0 °F 82% 30.28 in 10.0 mi NE 13.8 mph 20.7 mph N/A   Clear
2:15 AM 55.4 °F 50.0 °F 82% 30.28 in 10.0 mi NE 11.5 mph 18.4 mph N/A   Clear
2:35 AM 55.4 °F 51.8 °F 88% 30.27 in 10.0 mi NE 13.8 mph - N/A   Clear
2:55 AM 55.4 °F 51.8 °F 88% 30.27 in 10.0 mi NE 12.7 mph - N/A   Clear
3:15 AM 55.4 °F 51.8 °F 88% 30.27 in 10.0 mi NE 11.5 mph - N/A   Clear
3:35 AM 55.4 °F 51.8 °F 88% 30.26 in 10.0 mi NE 10.4 mph - N/A   Clear
3:55 AM 55.4 °F 51.8 °F 88% 30.26 in 10.0 mi NNE 12.7 mph - N/A   Clear
4:15 AM 55.4 °F 51.8 °F 88% 30.26 in 10.0 mi NE 13.8 mph - N/A   Clear
4:35 AM 55.4 °F 51.8 °F 88% 30.26 in 10.0 mi NE 12.7 mph - N/A   Clear
4:55 AM 55.4 °F 51.8 °F 88% 30.26 in 10.0 mi NE 12.7 mph 19.6 mph N/A   Clear
5:15 AM 55.4 °F 51.8 °F 88% 30.25 in 10.0 mi NE 11.5 mph 18.4 mph N/A   Clear
5:35 AM 55.4 °F 53.6 °F 94% 30.25 in 10.0 mi NE 11.5 mph - N/A   Clear
5:55 AM 55.4 °F 53.6 °F 94% 30.26 in 10.0 mi NE 11.5 mph - N/A   Clear
6:15 AM 55.4 °F 53.6 °F 94% 30.26 in 10.0 mi NE 12.7 mph - N/A   Clear
6:35 AM 55.4 °F 53.6 °F 94% 30.27 in 10.0 mi NE 12.7 mph - N/A   Clear
6:55 AM 55.4 °F 53.6 °F 94% 30.28 in 7.0 mi NE 13.8 mph - N/A   Mostly Cloudy
7:15 AM 55.4 °F 53.6 °F 94% 30.28 in 2.5 mi NE 11.5 mph - N/A   Overcast
7:35 AM 55.4 °F 55.4 °F 100% 30.28 in 0.5 mi NE 12.7 mph 20.7 mph N/A Fog Fog
7:55 AM 57.2 °F 55.4 °F 94% 30.29 in 0.2 mi NE 13.8 mph - N/A Fog Fog
8:15 AM 57.2 °F 57.2 °F 100% 30.29 in 0.2 mi NE 13.8 mph 19.6 mph N/A Fog Fog
8:35 AM 57.2 °F 57.2 °F 100% 30.29 in 0.8 mi NE 13.8 mph - N/A   Overcast
8:55 AM 59.0 °F 57.2 °F 94% 30.29 in 1.8 mi NE 17.3 mph - N/A   Overcast
9:15 AM 59.0 °F 59.0 °F 100% 30.29 in 5.0 mi NE 11.5 mph 19.6 mph N/A   Overcast
9:35 AM 60.8 °F 59.0 °F 94% 30.29 in 6.0 mi NE 13.8 mph - N/A   Overcast
9:55 AM 64.4 °F 59.0 °F 83% 30.28 in 8.0 mi NE 15.0 mph - N/A   Mostly Cloudy
10:15 AM 64.4 °F 59.0 °F 83% 30.28 in 9.0 mi NE 12.7 mph - N/A   Scattered Clouds
10:35 AM 68.0 °F 59.0 °F 73% 30.28 in 10.0 mi NE 12.7 mph - N/A   Partly Cloudy
10:55 AM 69.8 °F 60.8 °F 73% 30.27 in 10.0 mi NE 15.0 mph 18.4 mph N/A   Partly Cloudy
11:15 AM 71.6 °F 62.6 °F 73% 30.27 in 10.0 mi NE 11.5 mph 19.6 mph N/A   Partly Cloudy
11:35 AM 73.4 °F 62.6 °F 69% 30.26 in 10.0 mi NE 11.5 mph 19.6 mph N/A   Partly Cloudy
11:55 AM 73.4 °F 62.6 °F 69% 30.24 in 10.0 mi NE 15.0 mph - N/A   Scattered Clouds
12:15 PM 73.4 °F 62.6 °F 69% 30.23 in 10.0 mi NNE 15.0 mph 20.7 mph N/A   Mostly Cloudy
12:35 PM 75.2 °F 62.6 °F 65% 30.22 in 10.0 mi NE 17.3 mph 23.0 mph N/A   Overcast
12:55 PM 73.4 °F 62.6 °F 69% 30.22 in 10.0 mi NE 17.3 mph 24.2 mph N/A   Overcast
1:15 PM 73.4 °F 62.6 °F 69% 30.21 in 10.0 mi NE 10.4 mph 20.7 mph N/A   Overcast
1:35 PM 73.4 °F 62.6 °F 69% 30.21 in 8.0 mi ENE 12.7 mph - N/A   Mostly Cloudy
1:55 PM 73.4 °F 62.6 °F 69% 30.20 in 10.0 mi NE 10.4 mph - N/A   Mostly Cloudy
2:15 PM 73.4 °F 64.4 °F 73% 30.19 in 10.0 mi NNE 11.5 mph 17.3 mph N/A   Mostly Cloudy
2:35 PM 73.4 °F 64.4 °F 73% 30.19 in 10.0 mi NNE 9.2 mph - N/A   Overcast
2:55 PM 75.2 °F 62.6 °F 65% 30.18 in 9.0 mi NE 6.9 mph - N/A   Overcast
3:15 PM 73.4 °F 64.4 °F 73% 30.18 in 10.0 mi ENE 8.1 mph - N/A   Mostly Cloudy
3:35 PM 71.6 °F 64.4 °F 78% 30.18 in 6.0 mi ENE 16.1 mph - N/A   Haze
3:55 PM 68.0 °F 64.4 °F 88% 30.19 in 5.0 mi NE 9.2 mph - N/A   Mostly Cloudy
4:15 PM 68.0 °F 66.2 °F 94% 30.18 in 10.0 mi NE 6.9 mph - N/A   Overcast
4:35 PM 68.0 °F 66.2 °F 94% 30.18 in 10.0 mi ENE 8.1 mph - N/A   Overcast
4:55 PM 69.8 °F 64.4 °F 83% 30.18 in 10.0 mi NE 10.4 mph - N/A   Overcast
5:15 PM 69.8 °F 64.4 °F 83% 30.18 in 9.0 mi NE 9.2 mph - N/A   Overcast
5:35 PM 69.8 °F 64.4 °F 83% 30.18 in 10.0 mi NE 6.9 mph - N/A   Overcast
5:55 PM 68.0 °F 62.6 °F 83% 30.18 in 10.0 mi NE 4.6 mph - N/A   Overcast
6:15 PM 68.0 °F 64.4 °F 88% 30.19 in 10.0 mi NE 5.8 mph - N/A   Overcast
6:35 PM 68.0 °F 62.6 °F 83% 30.19 in 10.0 mi ENE 4.6 mph - N/A   Overcast
6:55 PM 68.0 °F 64.4 °F 88% 30.19 in 9.0 mi NE 6.9 mph - N/A Rain Light Rain
7:15 PM 68.0 °F 64.4 °F 88% 30.19 in 10.0 mi ENE 5.8 mph - N/A   Mostly Cloudy
7:35 PM 68.0 °F 62.6 °F 83% 30.19 in 10.0 mi ENE 5.8 mph - N/A   Mostly Cloudy
7:55 PM 66.2 °F 62.6 °F 88% 30.19 in 10.0 mi NE 6.9 mph - N/A   Partly Cloudy
8:15 PM 66.2 °F 62.6 °F 88% 30.19 in 10.0 mi NE 6.9 mph - N/A   Clear
8:35 PM 66.2 °F 62.6 °F 88% 30.20 in 10.0 mi NE 8.1 mph - N/A   Clear
8:55 PM 66.2 °F 62.6 °F 88% 30.21 in 10.0 mi NNE 8.1 mph - N/A   Clear
9:15 PM 66.2 °F 62.6 °F 88% 30.21 in 10.0 mi NE 9.2 mph - N/A   Clear
9:35 PM 66.2 °F 60.8 °F 83% 30.21 in 10.0 mi NE 8.1 mph - N/A   Clear
9:55 PM 64.4 °F 60.8 °F 88% 30.20 in 10.0 mi NE 8.1 mph - N/A   Clear
10:15 PM 64.4 °F 60.8 °F 88% 30.20 in 10.0 mi NE 8.1 mph - N/A   Partly Cloudy
10:35 PM 64.4 °F 59.0 °F 83% 30.20 in 10.0 mi NE 8.1 mph - N/A   Partly Cloudy
10:55 PM 64.4 °F 59.0 °F 83% 30.20 in 10.0 mi NNE 6.9 mph - N/A   Clear
11:15 PM 62.6 °F 59.0 °F 88% 30.19 in 10.0 mi NNE 5.8 mph - N/A   Clear
11:35 PM 62.6 °F 59.0 °F 88% 30.19 in 10.0 mi NE 6.9 mph - N/A   Clear
11:55 PM 62.6 °F 59.0 °F 88% 30.19 in 10.0 mi NNE 5.8 mph - N/A   Clear